Regional Weather Roundup
Issued by NWS

Home | Current Version | Previous Version | Text Only | Print | Product List | Glossary Off
Versions: 1 2 3 4 5 6 7 8 9 10 11 12 13 14 15 16 17 18 19 20 21 22 23 24 25 26 27 28 29 30 31 32 33 34 35 36 37 38 39 40 41 42 43 44 45 46 47 48 49 50

000
ASUS42 KTBW 180716
RWRFL
FLORIDA REGIONAL WEATHER ROUNDUP
NATIONAL WEATHER SERVICE TAMPA BAY RUSKIN FL
300 AM EDT SAT APR 18 2015

NOTE: "FAIR" INDICATES FEW OR NO CLOUDS BELOW 12,000 FEET WITH NO
SIGNIFICANT WEATHER AND/OR OBSTRUCTIONS TO VISIBILITY.


FLZ001>010-012>015-112-114-115-180800-
PANHANDLE FLORIDA

CITY           SKY/WX    TMP DP  RH WIND       PRES   REMARKS
PENSACOLA      PTCLDY    69  68  96 CALM      29.92F
PENSACOLA NAS  FOG       66  66 100 S3        29.92F VSB 1/2
MILTON NAS     FOG       65  65 100 CALM      29.93  VSB 1/4
CRESTVIEW      FOG       66  66 100 CALM      29.95R VSB 3/4
DUKE FIELD     FOG       68  67  97 N2        29.92S VSB 1/4
VALPARAISO     MOCLDY    71  70  95 SW5       29.93S
MARY ESTHER    CLOUDY    72  64  78 S2        29.92
TRI COUNTY     FOG       64  64 100 CALM      29.93F VSB 1
PANAMA CITY    PTSUNNY   71  69  93 CALM      29.92F
TYNDALL AFB    MOCLDY    70  69  96 CALM      29.93S
APALACHICOLA   CLOUDY    76  71  85 SW8       29.93F

STATION/POSITION SKY/WX   TEMP    WIND        PRES    WAVE   SWELL
                          AIR SEA DIR/SP/G            HT/PER HT/PER
                          (F)     (DEG/KT/KT) (MB)    (FT/S) (FT/S)
30.1N   87.6W              72 73   50/  2/  4 1012.7F   3/ 6   3/ 6
29.2N   88.2W              74 74  160/  4/  6 1013.6F   3/ 5   3/ 5
28.8N   86.0W              76 77  180/  6/  6 1014.2F   3/ 5   3/ 5
PANAMA CITY BEAC           74 75  220/  3/  4 1013.6F
CAPE SAN BLAS    NOT AVBL
TOWER C                    74     180/ 11/ 12 1013.5F
28.5N   84.5W              76 76  200/  8/ 10 1014.2F   1/ 5   2/ 5

$$
FLZ011-016>038-118-127-128-134-139-239-180800-
NORTH FLORIDA

CITY           SKY/WX    TMP DP  RH WIND       PRES   REMARKS
MARIANNA       LGT RAIN  66  66 100 S3        29.92F VSB 3/4
TALLAHASSEE    MOCLDY    74  72  93 S3        29.93F
PERRY          CLOUDY    71  69  96 CALM      29.95F
CROSS CITY       N/A    N/A N/A N/A MISG      29.96F
LAKE CITY      CLOUDY    68  68 100 SE3       29.96F FOG
GAINESVILLE    CLOUDY    69  68  96 S5        29.96F
MAYPORT NAS    CLOUDY    66  65  96 CALM      29.96F
JACKSONVILLE   MOCLDY    65  64  97 CALM      29.96F
JAX NAS        CLOUDY    72  67  84 SW3       29.97F
JAX CRAIG      MOCLDY    66  64  93 E3        29.96F FOG
JAX CECIL      CLOUDY    66  66 100 S3        29.97F FOG
FERNANDINA BEA FAIR      72  68  88 CALM      29.95F
ST AUGUSTINE   CLOUDY    68  67  96 CALM      29.98F

STATION/POSITION SKY/WX   TEMP    WIND        PRES    WAVE   SWELL
                          AIR SEA DIR/SP/G            HT/PER HT/PER
                          (F)     (DEG/KT/KT) (MB)    (FT/S) (FT/S)
SHELL POINT                75     190/ 13/ 17   N/A
KEATON BEACH               74     150/  5/  7 1014.2F
CEDAR KEY                  76     200/  4/  5 1014.9F
FERNANDINA                 68 71   CALM  /  1 1014.7F
30.7N   81.3W                 70                N/A     2/10   2/11
MAYPORT                    68 70  260/  3/  4 1015.4F
31.4N   80.9W              66 66   CALM  /  2 1015.4F   3/ 9   3/ 9
ST AUGUSTINE               68 69  190/  3/  3 1015.4F

$$
FLZ040-043>046-052-053-057-058-063-144-180800-
INTERIOR CENTRAL FLORIDA

CITY           SKY/WX    TMP DP  RH WIND       PRES   REMARKS
OCALA          CLOUDY    70  66  88 S3        29.97F
THE VILLAGES     N/A     70  70 100 CALM      29.88F
LEESBURG       CLOUDY    72  69  90 SE7       29.98F
SANFORD        MOCLDY    72  69  90 CALM      29.98F
ORLANDO EXEC   CLOUDY    72  70  93 CALM      29.99F
ORLANDO INTL   MOCLDY    72  71  97 N5        29.99F
WINTER HAVEN   PTCLDY    73  71  93 E5        29.99F
LAKELAND       PTCLDY    70  70 100 CALM      29.99F
BARTOW         FAIR      68 N/A N/A CALM      29.99F
OKEECHOBEE     PTCLDY    70  68  94 SW3       29.98F

$$
FLZ041-047-054-059-064-141-147-180800-
EAST CENTRAL FLORIDA

CITY           SKY/WX    TMP DP  RH WIND       PRES   REMARKS
DAYTONA BEACH  CLOUDY    69  69 100 CALM      29.97F
DELAND           N/A    N/A N/A N/A S3        29.98F
JFK SPACE CTR  CLOUDY    72  70  96 CALM      29.96F
CAPE CANAVERAL MOCLDY    74  73  96 NE3       29.96F
PATRICK AFB    MOCLDY    76  74  92 NE5       29.96F
MELBOURNE      MOCLDY    74  73  97 CALM      29.97F
VERO BEACH     PTCLDY    73  69  87 CALM      29.97F
FT PIERCE      CLEAR     71  69  93 CALM      29.97F
STUART         CLEAR     72  68  88 SW6       29.98F

STATION/POSITION SKY/WX   TEMP    WIND        PRES    WAVE   SWELL
                          AIR SEA DIR/SP/G            HT/PER HT/PER
                          (F)     (DEG/KT/KT) (MB)    (FT/S) (FT/S)
28.5N   80.2W              76 79  120/  8/ 10 1015.5F
28.9N   78.5W              76 78  210/ 12/ 14 1015.2F
TRIDENT PIER               74 79   30/  3/  4 1015.7F
28.4N   80.5W                 78                N/A     2/ 9
27.5N   80.2W                 78                N/A     4/ 9   2/11

$$
FLZ050-056-061-142-242-148-248-149-249-151-251-155-255-
160-260-180800-
WEST CENTRAL FLORIDA

CITY           SKY/WX    TMP DP  RH WIND       PRES   REMARKS
CRYSTAL RIVER  FAIR      70  68  94 CALM      29.97F
INVERNESS      FAIR      70  10  10 CALM      29.98F HAZE
BROOKSVILLE    MOCLDY    72  70  93 SE6       29.98F
CLEARWATER     PTCLDY    73  71  93 CALM      29.97F
TAMPA INTL     PTCLDY    75  70  84 CALM      29.98F
TAMPA EXEC     PTCLDY    72  70  94 CALM      29.99F FOG
PLANT CITY     PTCLDY    72  72 100 CALM      30.00F FOG
MACDILL AFB    PTCLDY    73  72  99 CALM      29.97F
PETER O KNIGHT PTCLDY    75  72  88 CALM      29.98F
ST PETERSBURG  PTCLDY    77  73  87 NE3       29.96F
SARASOTA       PTCLDY    74  72  93 CALM      29.96F
VENICE         FAIR      75  73  94 E3        29.98F

STATION/POSITION SKY/WX   TEMP    WIND        PRES    WAVE   SWELL
                          AIR SEA DIR/SP/G            HT/PER HT/PER
                          (F)     (DEG/KT/KT) (MB)    (FT/S) (FT/S)
CEDAR KEY                  76     200/  4/  5 1014.9F
28.5N   84.5W              76 76  200/  8/ 10 1014.2F   1/ 5   2/ 5
27.3N   84.2W                 78                N/A     2/ 8
CLEARWATER BEACH           78 81  220/  5/  6 1015.6F
MIDDLE TAMPA BAY           79     280/  6/  7 1016.0F
VENICE                     76 83  100/  2/  3 1014.5F

$$
FLZ066-069-070-075>078-162-262-165-265-180800-
SOUTHWEST FLORIDA AND KEYS

CITY           SKY/WX    TMP DP  RH WIND       PRES   REMARKS
PUNTA GORDA    CLOUDY    71  70  96 E5        30.00F FOG
FT MYERS       CLEAR     73  72  96 CALM      29.97F
SOUTHWEST INTL CLEAR     72  69  90 E3        29.98F
NAPLES         CLEAR     75  72  90 CALM      29.97F
MARCO ISLAND   PTSUNNY   73  70  88 CALM      29.97F
IMMOKALEE      SUNNY    N/A N/A N/A CALM      29.99F
MARATHON       PTCLDY    80  73  79 SE6       29.99F
KEY WEST NAS   PTCLDY    78  72  81 SE12      29.98F
KEY WEST INTL  PTCLDY    79  73  82 SE9       29.99F

STATION/POSITION SKY/WX   TEMP    WIND        PRES    WAVE   SWELL
                          AIR SEA DIR/SP/G            HT/PER HT/PER
                          (F)     (DEG/KT/KT) (MB)    (FT/S) (FT/S)
VENICE                     76 83  100/  2/  3 1014.5F
NAPLES                     78 83  140/  1/  3 1015.1F
26.0N   85.6W              79 80  140/  4/  6 1014.1F   2/ 5   2/ 5
DRY TORTUGAS               78     150/ 11/ 12 1015.2F
NW FL BAY                  81     150/  6/  7 1016.0
SAND KEY                   79     140/ 12/ 13 1015.2F
SOMBRERO KEY               79     140/  9/ 10 1016.1F
LONG KEY                   79 83  170/ 10/ 11 1016.2F
MOLASSES REEF              79 79  150/  7/  8 1015.5F

$$
FLZ067-068-071>074-168-172>174-180800-
SOUTHEAST FLORIDA

CITY           SKY/WX    TMP DP  RH WIND       PRES   REMARKS
W PALM BEACH   PTCLDY    76  71  85 S5        29.98F
FT LAUDER-EXEC MOCLDY    77  73  87 SW3       29.98F
FT LAUDERDALE  CLEAR     78  71  79 SW3       29.97F
POMPANO BEACH  PTCLDY    78  32  18 SW3       29.98F
PEMBROKE PINES CLEAR     77  71  82 CALM        N/A
OPA LOCKA      CLEAR     76  71  85 CALM      29.98F
MIAMI          PTCLDY    77  71  82 VRB5      29.98F
WEST KENDALL   PTCLDY    75  71  87 S5        29.98F
HOMESTEAD      CLEAR     71  71  98 S3        29.98F

STATION/POSITION SKY/WX   TEMP    WIND        PRES    WAVE   SWELL
                          AIR SEA DIR/SP/G            HT/PER HT/PER
                          (F)     (DEG/KT/KT) (MB)    (FT/S) (FT/S)
PORT EVERGLADES            79     190/  3/  6 1015.4F
VIRGINIA KEY               79 83  190/  5/  6 1015.2F
LAKE WORTH                 78 80  200/  7/  8 1015.0F
SETTLEMENT POINT           78     180/  7/  9 1016.1R

$$




USA.gov is the U.S. government's official web portal to all federal, state and local government web resources and services.